Powrót do katalogu

STARLINK-30482

AktywnyŁącznośćVLEO
NORAD 57907·PAYLOAD·🇺🇸 United States

Wystrzelony Sep 20, 2023 z Cape Canaveral Space Force Station

Loading…

Następne Przeloty (najbliższe 24 godziny)

TLE

ŚwieżeSource: CelesTrak SupGP

Epoka: Sep 14, 2026, 20:48 UTC

1 57907C 23146S   26257.86715278 -.00092174  00000+0 -33379-2 0  2578
2 57907  43.0014 326.2706 0001679 268.7190  79.3266 15.27630188    19

Śledź STARLINK-30482 w czasie rzeczywistym z AllMySat

Download on the App Store